Home   Weather   Kunduz   Past weeks

Flag for Afghanistan Past Weather in Kunduz, Afghanistan — Yesterday and Last 2 Weeks

52 °F


Feels Like: 49 °F
Forecast: 40 / 62 °F
Wind: 8 mph from Southwest

Location: Termez Airport

Current Time: Oct 23, 2016 at 8:51:50 PM

Latest Report: Oct 23, 2016 at 8:00 PM

Visibility: 10 mi

Pressure: 30.27 "Hg

Humidity: 28%

Dew Point: 19 °F

Location of KunduzLocation

Past Weather in Kunduz — Graph


Kunduz Temperature Yesterday

Maximum temperature yesterday: 66 °F (at 2:30 PM)
Minimum temperature yesterday: 46 °F (at 2:30 AM)
Average temperature yesterday: 54 °F

High & Low Weather Summary for the Past Weeks

High86 °F (Oct 13, 2:00 PM)100% (Oct 12, 9:00 PM)30.42 "Hg (Oct 12, 9:00 PM)
Low41 °F (Oct 23, 3:00 AM)11% (Oct 13, 2:30 PM)29.86 "Hg (Oct 11, 3:00 PM)
Average62 °F42%30.10 "Hg
* Reported Oct 8 7:30 PM — Oct 23 7:30 PM, Kunduz, Weather by CustomWeather, © 2016

Note: Actual official high and low records may vary slightly from our data, if they occured in-between our weather recording intervals... More about our weather records


Kunduz Weather History for the Previous 24 Hours

Scroll right to see more
Time TempWeatherWind HumidityBarometerVisibility
7:30 PM
Sun, Oct 23
52 °FClear.8 mph30%30.27 "Hg10 mi
7:00 PM54 °FClear.9 mph30%30.27 "Hg10 mi
6:30 PM52 °FClear.8 mph32%30.27 "Hg10 mi
6:00 PM54 °FClear.9 mph30%30.24 "Hg10 mi
5:30 PM55 °FClear.9 mph28%30.24 "Hg10 mi
5:00 PM57 °FPassing clouds.10 mph27%30.24 "HgN/A
4:30 PM61 °FPassing clouds.14 mph23%30.24 "HgN/A
4:00 PM63 °FScattered clouds.15 mph25%30.24 "HgN/A
3:30 PM63 °FSunny.15 mph27%30.21 "Hg10 mi
3:00 PM64 °FSunny.16 mph26%30.21 "Hg10 mi
2:30 PM64 °FSunny.14 mph26%30.21 "Hg10 mi
2:00 PM64 °FSunny.15 mph28%30.21 "Hg10 mi
1:30 PM64 °FPassing clouds.13 mph26%30.21 "HgN/A
1:00 PM64 °FSunny.13 mph24%30.24 "Hg10 mi
12:30 PM63 °FPassing clouds.12 mph25%30.24 "HgN/A
12:00 PM61 °FPassing clouds.10 mph27%30.24 "HgN/A
11:30 AM61 °FPassing clouds.9 mph27%30.27 "HgN/A
11:00 AM57 °FScattered clouds.7 mph31%30.27 "HgN/A
10:30 AM55 °FScattered clouds.8 mph33%30.27 "HgN/A
10:00 AM52 °FScattered clouds.8 mph41%30.27 "HgN/A
9:30 AM50 °FScattered clouds.7 mph47%30.27 "HgN/A
9:00 AM48 °FScattered clouds.6 mph46%30.27 "HgN/A
8:30 AM46 °FPassing clouds.5 mph50%30.27 "HgN/A
8:00 AM45 °FSunny.5 mph49%30.27 "Hg10 mi
7:30 AM43 °FSunny.3 mph57%30.27 "Hg10 mi
7:00 AM41 °FSunny.2 mph61%30.27 "Hg10 mi
6:30 AM41 °FSunny.2 mph61%30.24 "Hg10 mi
5:30 AM41 °FClear.No wind66%30.27 "Hg10 mi
4:30 AM43 °FClear.No wind66%30.27 "Hg10 mi
3:30 AM41 °FClear.5 mph76%30.27 "Hg10 mi
3:00 AM41 °FClear.3 mph70%30.27 "Hg10 mi
2:30 AM45 °FClear.2 mph61%30.27 "Hg10 mi
1:30 AM46 °FPassing clouds.No wind62%30.30 "HgN/A
12:30 AM46 °FPassing clouds.3 mph66%30.30 "HgN/A
12:00 AM48 °FPassing clouds.1 mph58%30.30 "HgN/A
11:30 PM
Sat, Oct 22
48 °FPassing clouds.1 mph58%30.30 "HgN/A
11:00 PM50 °FPassing clouds.No wind50%30.30 "HgN/A
10:30 PM50 °FPassing clouds.No wind54%30.30 "HgN/A
10:00 PM52 °FPassing clouds.No wind44%30.33 "HgN/A
9:30 PM50 °FPassing clouds.3 mph47%30.33 "HgN/A
9:00 PM52 °FPassing clouds.3 mph41%30.33 "HgN/A
8:30 PM52 °FPassing clouds.2 mph44%30.33 "HgN/A
8:00 PM54 °FPassing clouds.3 mph38%30.33 "HgN/A
Weather by CustomWeather, © 2016

See weather overviewHow to use our weather pages